FW3268 Weather Reports


Display with metric or nautical units.
time (UTC)temp
F
wind
direction
speed
MPH
gust
MPH
rain 1hr
in
rain 24hr
in
rain mn
in
humidity
%
barometer
mb
20260904223001 89 121 0.0 0.0 0.00 0.00 0.00 75 1013.1
20260904221459 90 109 0.0 0.0 0.00 0.00 0.00 75 1013.1
20260904213002 90 85 0.0 0.0 0.00 0.00 0.00 73 1013.1
20260904211501 90 101 0.0 0.0 0.00 0.00 0.00 73 1013.1
20260904210004 90 137 0.0 0.0 0.00 0.00 0.00 74 1012.9
20260904204501 92 185 0.0 0.0 0.00 0.00 0.00 65 1012.9
20260904203001 93 147 0.0 0.0 0.00 0.00 0.00 63 1013.4
20260904201502 93 50 0.0 0.0 0.00 0.00 0.00 63 1013.5
20260904194503 92 68 0.0 0.0 0.00 0.00 0.00 64 1014.0
20260904193001 92 60 0.0 0.0 0.00 0.00 0.00 67 1014.5
20260904190003 91 22 0.0 0.0 0.00 0.00 0.00 67 1015.1
20260904183000 91 289 0.0 0.0 0.00 0.00 0.00 66 1015.3
20260904181459 91 305 0.0 0.0 0.00 0.00 0.00 64 1015.2
20260904180004 90 291 0.0 0.0 0.00 0.00 0.00 66 1015.3
20260904174500 89 262 0.0 0.0 0.00 0.00 0.00 65 1015.2
20260904172959 88 282 0.0 0.0 0.00 0.00 0.00 73 1015.3
20260904171500 86 298 0.0 0.0 0.00 0.00 0.00 76 1015.5
20260904170004 84 284 0.0 0.0 0.00 0.00 0.00 81 1015.6
20260904164500 85 288 0.0 0.0 0.00 0.00 0.00 75 1016.1
20260904163000 89 283 0.0 0.0 0.00 0.00 0.00 71 1016.2
20260904161500 90 285 0.0 0.0 0.00 0.00 0.00 69 1016.1
20260904154459 89 283 0.0 0.0 0.00 0.00 0.00 69 1015.7
20260904151458 88 276 0.0 0.0 0.00 0.00 0.00 72 1015.7
20260904144500 86 273 0.0 0.0 0.00 0.00 0.00 75 1015.9
20260904142959 85 283 0.0 0.0 0.00 0.00 0.00 76 1015.8
20260904141500 84 279 0.0 0.0 0.00 0.00 0.00 76 1015.8
20260904140004 84 285 0.0 0.0 0.00 0.00 0.00 78 1015.6
20260904134501 83 271 0.0 0.0 0.00 0.00 0.00 79 1015.6
20260904132959 81 266 0.0 0.0 0.00 0.00 0.00 84 1015.6
20260904131459 80 244 0.0 0.0 0.00 0.00 0.00 84 1015.4
20260904130003 78 257 0.0 0.0 0.00 0.00 0.00 87 1015.4
20260904124459 76 283 0.0 0.0 0.00 0.00 0.00 90 1015.5
20260904120003 74 250 0.0 0.0 0.00 0.00 0.00 91 1015.2
20260904114459 73 256 0.0 0.0 0.00 0.00 0.00 92 1015.0
20260904112959 72 249 0.0 0.0 0.00 0.00 0.00 93 1014.6
20260904111459 72 243 0.0 0.0 0.00 0.00 0.00 92 1014.3
20260904110003 72 235 0.0 0.0 0.00 0.00 0.00 92 1014.2
20260904104459 72 241 0.0 0.0 0.00 0.00 0.00 91 1014.2
20260904102959 73 252 0.0 0.0 0.00 0.00 0.00 91 1014.2
20260904101500 73 252 0.0 0.0 0.00 0.00 0.00 90 1014.3
20260904100001 73 252 0.0 0.0 0.00 0.00 0.00 89 1014.4
20260904094459 73 252 0.0 0.0 0.00 0.00 0.00 88 1014.2
20260904093000 74 252 0.0 0.0 0.00 0.00 0.00 88 1014.2
20260904091500 74 252 0.0 0.0 0.00 0.00 0.00 87 1014.0
20260904090003 74 233 0.0 0.0 0.00 0.00 0.00 87 1013.9
20260904084459 74 255 0.0 0.0 0.00 0.00 0.00 86 1013.9
20260904081459 75 211 0.0 0.0 0.00 0.00 0.00 87 1013.9
20260904080002 75 242 0.0 0.0 0.00 0.00 0.00 88 1014.0
20260904074459 74 243 0.0 0.0 0.00 0.00 0.00 94 1014.4
20260904073001 73 130 0.0 0.0 0.00 0.00 0.00 93 1014.7
20260904071459 73 130 0.0 0.0 0.00 0.00 0.00 93 1014.6
20260904070001 73 130 0.0 0.0 0.00 0.00 0.00 94 1014.7
20260904064502 73 130 0.0 0.0 0.00 0.00 0.00 94 1014.8
20260904062958 73 131 0.0 0.0 0.00 0.00 0.00 93 1015.0
20260904060001 73 130 0.0 0.0 0.00 0.00 0.00 93 1015.2
20260904054458 73 130 0.0 0.0 0.00 0.00 0.00 93 1015.3
20260904053000 74 131 0.0 0.0 0.00 0.00 0.00 92 1015.3
20260904050003 74 130 0.0 0.0 0.00 0.00 0.00 92 1015.3
20260904044500 74 130 0.0 0.0 0.00 0.00 0.00 92 1015.3
20260904043001 74 130 0.0 0.0 0.00 0.00 0.00 92 1015.2
20260904041501 74 135 0.0 0.0 0.00 0.00 0.00 92 1015.1
20260904040009 74 143 0.0 0.0 0.00 0.00 0.00 92 1015.1
20260904034502 75 127 0.0 0.0 0.00 0.00 0.00 92 1014.9
20260904033001 75 111 0.0 0.0 0.00 0.00 0.00 90 1015.0
20260904031501 76 110 0.0 0.0 0.00 0.00 0.00 91 1014.9
20260904030004 76 128 0.0 0.0 0.00 0.00 0.00 91 1015.0
20260904024501 76 139 0.0 0.0 0.00 0.00 0.00 90 1015.2
20260904023000 76 139 0.0 0.0 0.00 0.00 0.00 90 1015.3
20260904021500 76 139 0.0 0.0 0.00 0.00 0.00 90 1015.1
20260904020004 76 139 0.0 0.0 0.00 0.00 0.00 90 1015.0
20260904013001 78 107 0.0 0.0 0.00 0.00 0.00 87 1014.8
20260904011501 78 106 0.0 0.0 0.00 0.00 0.00 85 1014.9
20260904010003 79 106 0.0 0.0 0.00 0.00 0.00 82 1014.8
20260904004500 80 56 0.0 0.0 0.00 0.00 0.00 78 1014.7
20260904003001 82 56 0.0 0.0 0.00 0.00 0.00 76 1014.7
20260904001500 83 30 0.0 0.0 0.00 0.00 0.00 71 1014.7
20260904000005 85 318 0.0 0.0 0.00 0.00 0.00 68 1014.5
20260903234500 87 318 0.0 0.0 0.00 0.00 0.00 73 1014.5
20260903233001 89 273 0.0 0.0 0.00 0.00 0.00 72 1014.1
20260903231501 89 273 0.0 0.0 0.00 0.00 0.00 71 1014.1
20260903230003 90 271 0.0 0.0 0.00 0.00 0.00 68 1013.8
20260903224500 91 274 0.0 0.0 0.00 0.00 0.00 66 1013.7